Theta_e
324 323 320 319 320 321 321 321 321 321 320 319 318 317 316 315 317 326 326 325 325 327 327 327 326 328 327 330 329 329 325 322
331 324 320 319 320 321 321 321 322 321 321 320 319 319 317 316 323 329 326 325 326 330 329 329 329 327 329 327 323 328 330 327
333 325 324 318 320 321 322 323 324 323 323 321 320 320 319 317 325 329 323 323 324 323 322 324 328 330 328 326 324 325 327 328
334 327 321 319 320 322 323 324 324 324 324 323 321 320 320 319 324 322 323 323 321 321 321 321 324 327 328 326 326 326 324 328
334 334 323 319 320 322 324 324 323 325 325 324 322 321 321 322 322 323 323 323 323 323 321 317 318 325 325 325 324 324 323 327
332 334 334 334 337 326 328 329 324 326 326 326 323 323 323 331 332 332 330 325 323 324 322 319 316 318 323 325 326 325 324 330
332 333 335 334 337 338 336 337 330 329 330 332 335 336 334 332 332 330 328 326 325 324 321 318 316 317 324 330 328 324 327 329
331 332 334 332 326 333 337 337 339 339 337 336 336 334 330 330 331 332 331 331 331 329 327 325 326 326 327 328 329 329 327 327
330 331 334 336 325 324 336 337 337 337 335 333 332 323 319 330 331 331 330 330 331 329 328 327 327 327 327 326 327 330 329 329
330 330 334 337 330 323 324 337 336 334 331 329 329 325 321 330 331 331 331 331 329 329 329 327 327 327 329 329 327 328 329 330
328 330 333 336 332 324 323 327 326 325 327 322 327 329 326 328 331 332 331 331 329 330 330 328 328 327 326 327 329 329 330 328
332 329 330 330 331 325 324 323 326 324 323 328 328 325 325 326 331 329 330 330 328 327 325 326 326 327 326 327 328 329 329 330
331 328 327 328 332 326 325 323 325 325 323 328 328 330 327 326 327 328 328 327 327 328 326 327 327 326 327 326 328 326 328 328
330 327 325 325 334 326 324 324 324 322 324 329 327 331 332 330 329 329 327 328 329 326 326 325 328 327 327 327 325 325 326 328
324 324 323 327 330 326 327 325 325 328 328 329 331 332 332 332 330 328 328 329 327 325 326 326 327 326 326 326 326 326 328 327
324 323 324 329 331 329 329 326 329 329 328 330 331 332 332 331 329 328 330 328 327 325 323 325 324 324 324 325 327 326 326 326
323 324 328 331 327 326 327 329 329 328 329 331 331 333 331 330 329 330 328 327 326 323 322 323 323 324 326 323 325 327 327 326
328 327 329 331 323 324 330 329 323 328 328 330 332 333 333 329 328 327 326 325 325 324 326 323 323 323 324 323 324 328 327 325
331 329 328 324 322 323 323 328 330 329 329 331 331 331 331 329 327 327 324 325 326 323 322 324 324 327 324 327 326 328 328 327
Wind_Speed
15 14 13 16 17 17 15 13 12 11 8 7 7 8 10 10 11 11 13 14 16 16 14 14 13 13 13 14 14 13 11 13
16 17 15 18 19 18 18 16 15 13 12 11 10 10 11 11 10 12 15 17 17 18 18 18 17 19 18 16 17 16 15 13
16 19 18 19 20 20 20 20 20 19 17 14 13 12 12 12 11 15 18 18 19 22 22 22 21 20 20 19 19 19 17 17
18 21 19 20 22 22 22 25 24 21 19 17 16 14 14 14 14 17 19 20 20 19 20 21 22 23 22 22 21 19 19 20
21 21 23 23 23 23 26 28 26 23 21 19 18 17 16 16 17 18 19 19 19 19 20 20 22 23 24 24 24 23 21 21
22 23 23 21 22 24 24 24 27 25 22 22 21 19 18 15 14 15 17 20 22 22 21 20 19 19 21 25 26 25 24 18
22 24 25 25 24 22 21 21 23 24 22 20 16 15 15 14 15 16 18 23 21 22 20 20 19 17 14 13 16 19 21 19
20 24 26 31 31 26 21 19 18 18 16 16 17 16 15 14 14 14 14 14 14 16 13 13 13 13 13 16 13 18 17 20
21 23 27 29 34 32 22 21 19 18 16 15 14 17 17 15 14 14 13 14 14 13 15 12 12 12 13 16 16 17 18 18
23 21 27 30 33 34 32 21 21 20 18 16 15 15 17 15 14 14 14 14 15 15 14 13 13 13 12 12 15 17 16 16
22 19 24 31 32 34 33 30 27 26 19 20 13 13 18 16 14 15 15 14 15 16 15 13 13 12 13 13 15 16 15 17
22 21 26 30 31 34 32 31 28 24 23 14 12 17 17 18 16 18 16 16 16 18 19 17 14 12 12 14 14 14 15 18
23 23 26 24 28 34 34 30 28 22 20 14 13 13 16 18 18 19 19 19 18 17 20 16 13 13 13 13 16 13 13 14
22 23 25 21 26 32 31 31 27 24 18 13 13 12 14 15 17 19 20 17 18 18 18 16 13 14 13 16 15 12 12 11
22 20 17 19 25 29 27 25 20 15 14 12 11 12 13 14 17 19 19 18 17 17 16 14 13 13 13 12 12 12 10 10
15 13 15 21 26 26 22 20 15 13 12 10 11 12 13 14 17 18 19 17 17 16 16 13 14 14 14 14 12 12 10 10
9 12 17 21 24 24 20 15 12 11 10 9 9 12 11 12 14 16 15 16 15 16 17 16 15 13 14 14 13 11 9 8
11 14 18 21 24 23 17 15 12 9 8 7 8 7 7 8 10 12 13 13 12 12 15 15 15 13 13 13 13 8 7 9
13 17 19 23 26 22 17 11 10 8 7 8 7 8 7 8 10 9 8 9 10 13 13 12 9 10 12 11 11 10 7 4
Wind_Direction
196 192 195 194 193 198 200 204 207 215 231 258 285 300 305 296 282 265 273 274 276 275 275 275 264 260 261 262 275 270 260 261
199 199 206 202 200 205 208 211 216 223 234 249 266 286 302 300 283 273 275 272 273 270 270 265 261 253 254 254 258 257 262 260
208 210 211 211 207 212 217 221 226 229 234 247 257 273 292 299 284 274 272 269 270 271 267 264 259 256 248 251 250 250 252 259
219 218 220 220 214 217 223 229 233 236 239 248 258 268 281 289 276 271 275 278 275 273 275 267 255 256 248 256 252 249 251 252
226 223 222 224 221 221 224 228 234 240 243 250 262 268 275 282 276 273 274 284 277 279 282 272 257 250 251 253 252 249 248 248
238 229 221 222 218 221 222 229 232 237 242 250 258 263 269 266 266 273 274 268 275 284 283 276 265 257 251 248 251 251 246 245
250 238 225 221 218 216 213 214 232 233 239 244 247 254 265 258 259 258 262 276 277 279 275 277 272 259 249 248 252 262 244 238
265 245 233 230 226 218 215 213 217 221 228 235 242 252 263 257 262 269 276 280 287 287 281 280 278 274 254 252 249 230 232 232
269 249 232 226 227 225 212 217 218 217 224 234 247 267 267 262 262 265 263 268 269 269 265 268 264 259 250 249 245 247 222 219
266 252 229 225 230 226 224 216 216 220 231 237 249 262 262 253 255 258 262 259 259 257 254 256 260 260 259 255 245 240 230 223
270 255 228 226 229 224 227 224 230 234 231 245 244 247 262 256 255 254 258 262 259 253 251 247 253 251 259 253 242 235 225 225
269 263 237 235 226 224 224 227 228 233 235 234 239 256 260 262 257 255 256 259 259 259 253 244 249 254 252 252 244 231 218 218
265 259 248 236 221 221 217 220 222 224 235 231 241 247 263 267 263 260 259 264 270 266 257 239 238 242 244 244 242 224 213 218
265 253 251 230 211 213 215 215 213 224 228 232 245 249 258 260 257 261 261 263 257 263 247 235 233 235 246 239 238 222 212 213
257 249 233 213 205 203 203 202 205 214 222 233 241 252 258 263 258 260 260 254 266 255 238 234 233 237 240 232 225 209 203 206
240 222 203 194 194 186 186 190 198 211 224 233 243 256 262 265 265 259 252 259 260 242 243 237 234 240 238 219 202 197 201 205
208 187 183 183 186 184 185 181 193 205 223 230 244 254 260 258 258 247 254 257 253 235 232 233 236 233 230 210 195 185 184 189
179 177 172 173 177 179 177 187 199 207 224 248 262 265 255 257 258 258 257 256 243 217 229 234 237 228 221 207 196 185 187 194
162 159 162 167 176 183 185 182 185 206 230 236 236 242 248 250 260 261 254 227 206 222 231 234 227 216 205 196 192 208 223 178